sat.trackr.live / text

‹ back to catalog

SKYCRAFT-4B

NORAD 64872 · 2025-154D

PAYLOAD ACTIVE UNKNOWN

§ Identity

Operator
Country
AUS
Launch date
2025-07-23
Launch site
AFWTR
Launch vehicle
Mass (kg)
RCS (m²)

External: N2YO · Heavens-Above · Gunter

§ Orbital elements

Epoch: 2026-09-21T22:53:46.585824Z

Period
96.09 min
Inclination
97.6573°
Eccentricity
0.0004003
Mean motion
14.98573786 rev/d
Perigee alt
568.5 km
Apogee alt
574.1 km
Semi-major
6,949.4 km
B*
2.5494e-4
RAAN
327.8200°
Arg perigee
305.4097°
Mean anomaly
54.6752°
Rev number
6,353

§ Raw data

SKYCRAFT-4B1 64872U 25154D   26264.95401141  .00002997  00000+0  25494-3 0  99922 64872  97.6573 327.8200 0004003 305.4097  54.6752 14.98573786 63537

JSON: /api/v1/satellites/64872 · /tle

For live sub-satellite position, see the globe view (requires WebGL).

§ Visibility from observer

Set your observer location to see the next 7 days of passes ≥ 10°. The values pass through the URL so the page stays shareable.

No JS? Fill the form by hand. The geolocation button needs JavaScript.